Погода в Итайтубе

Бразилия     4°16′21″S   55°59′25″W
темп.,
°C
ветер,
м/с
пор.,
м/с
влажн.,
%
обл.,
%
осадки,
мм/ч
давл.,
гПа
погр.,
м
26 февраля, пт
пт2600:00+23в0198100 4.1 101025
03:00+23всв15100100 5.1 1008218
06:00+23св1699100 0.3 1009293
09:00+23всв1599100 0.4 1011377
12:00+27всв1581100 0.3 1012640
15:00+32св235793 0.9 10071471
18:00+28вюв247471 0.4 1006357
21:00+24всв118983 0.6 100828
27 февраля, сб
сб2700:00+23в1194100 0.0 101024
03:00+23всв119298 0.0 100823
06:00+22в129978 1.9 100966
09:00+24всв159789 2.6 1011354
12:00+27всв2594100 4.6 1011672
15:00+28св1484100 9.1 1007845
18:00+28всв128258 0.3 1006145
21:00+24в119679 1.1 100842
28 февраля, вс
вс2800:00+24в119891 0.9 100929
03:00+23всв119995 2.5 100737
06:00+23ссв1499100 0.1 1008193
09:00+24всв1896100 0.3 1010497
12:00+28всв266964 1.1 1009833
15:00+30с237351 2.8 1005929
18:00+28всв139376 4.2 1004631
21:00+24всв129877 8.1 100724
1 марта, пн
пн100:00+24вюв0198100 0.8 100824
03:00+23зюз0199100 5.6 100623
06:00+23св009999 3.2 100623
09:00+23ю0199100 6.4 100939
12:00+24сз0299100 3.6 1009234
15:00+24сз1396100 5.3 1006305
18:00+24зюз1396100 0.1 1006239
21:00+23юз1199100 0.4 100825
2 марта, вт
вт200:00+22ююз1199100 0.2 100934
03:00+22юв01100100 1.8 100855
06:00+22в16100100 0.1 1008360
09:00+23всв2797100 0.3 1011567
12:00+24всв2790100 0.6 1011497
15:00+25св1487100 0.6 1008467
18:00+27св2575100 0.0 1007792
21:00+23св1197100 0.1 101023